星链-1967 (STARLINK-1967 )

导读 | 豆包AI

STARLINK-1967是美国太空探索技术公司(SpaceX)星链(Starlink)项目的卫星,于2021年2月4日发射,旨在为全球提供高速互联网接入服务,尤其服务偏远地区和网络基础设施薄弱区域,推动全球互联网覆盖。作为星链星座的一员,该卫星运行在近地轨道,依托星链大规模组网,降低延迟、提升带宽,助力实现全球卫星互联网部署。

基本信息
目录编号:
47568
目录名称:
STARLINK-1967
国际标识:
2021-009W
轨道中心:
EARTH
卫星名称:
星链-1967
卫星全名:
星链-1967 (STARLINK-1967 )
卫星状态:
在轨 (已飞行1864 天)
发射日期:
2021-02-04 UTC
国别 :
美国 (US)
星等 :
--
轨道信息
数据来源 国际轨道数据
星历时间: 2026-03-14T08:00:02+0800
10小时前
查看轨道信息
半长轴: 6755.377km
偏心率: 0.0004377
轨道倾角: 53.045°
近地点辐角 100.520°
升交点赤经 343.832°
平近点角 41.015°
近地点: 374.283km
远地点: 380.197km
周期: 92.095分钟
每日圈数: 15.6361
详细信息
固有亮度:
5
最大亮度:
2.5
卫星平台:
Starlink V1.0
覆盖范围:
全球
运营商:
太空探索技术公司
运营商所在国:
美国
制造商(研发单位):
太空探索技术公司
制造商所在国:
美国
使用方式:
暂无
卫星简介
星链(Starlink)计划是由太空探索技术公司(SpaceX)提出的一个巨型低轨卫星互联网星座项目,计划在2019年至2024年间在太空搭建由约1.2万颗卫星组成的“星链”网络,其中1584颗将部署在地球上空550千米处的近地轨道,并从2020年开始工作。该卫星仍在工作。
2D轨道图
3D轨道图
轨道高度分析图
轨道倾角分析图
轨道综合分析图
查看轨道综合分析图